Preston, Minnesota, United States (55965)
Lat: 43.67N, Lon: 92.08W
Wx Zone: MNZ095
Local Info
Past Weather Observations for Today

NOTE: This archive is for the closest National Weather Service station to Preston. Information may differ from the station used for current weather conditions.

Click here for Long-term Archive

Time Weather Temperature Dewpoint Humidity Pressure Winds Precip Visibility
21:55
Obscured
Light Snow
25°F / -4°C 23°F / -5°C 93% 30.09 in
(1019 mb)
ENE 10.4 mph
(ENE 17 kph)
0.02 in
(0.51 mm)
1 1/4SM
21:35
Obscured
Light Snow
25°F / -4°C 23°F / -5°C 93% 30.09 in
(1019 mb)
NE 8.1 mph
(NE 13 kph)
0.01 in
(0.25 mm)
1 1/2SM
21:15
Obscured
Light Snow
25°F / -4°C 23°F / -5°C 93% 30.12 in
(1020 mb)
NE 9.2 mph
(NE 15 kph)
- 1 3/4SM
20:55
Obscured
Light Snow
25°F / -4°C 23°F / -5°C 93% 30.12 in
(1020 mb)
NE 9.2 mph
(NE 15 kph)
0.01 in
(0.25 mm)
1 3/4SM
20:35
Light Snow
25°F / -4°C 23°F / -5°C 93% 30.12 in
(1020 mb)
NE 9.2 mph
(NE 15 kph)
- 2SM
20:15
Light Snow
25°F / -4°C 23°F / -5°C 93% 30.12 in
(1020 mb)
NE 9.2 mph
(NE 15 kph)
- 2 1/2SM
19:55
Overcast
Light Snow
25°F / -4°C 23°F / -5°C 93% 30.12 in
(1020 mb)
NE 9.2 mph
(NE 15 kph)
- 2 1/2SM
19:35
Overcast
Light Snow
27°F / -3°C 23°F / -5°C 86% 30.12 in
(1020 mb)
NE 8.1 mph
(NE 13 kph)
- 2 1/2SM
19:15
Overcast
Light Snow
27°F / -3°C 23°F / -5°C 86% 30.12 in
(1020 mb)
NE 8.1 mph
(NE 13 kph)
- 3SM
18:55
Overcast
Light Snow
27°F / -3°C 23°F / -5°C 86% 30.12 in
(1020 mb)
NE 8.1 mph
(NE 13 kph)
- 5SM
18:35
Overcast
27°F / -3°C 23°F / -5°C 86% 30.12 in
(1020 mb)
NE 8.1 mph
(NE 13 kph)
- 10SM
18:15
Overcast
27°F / -3°C 23°F / -5°C 86% 30.12 in
(1020 mb)
NE 8.1 mph
(NE 13 kph)
- 10SM
17:35
Overcast
28°F / -2°C 23°F / -5°C 80% 30.12 in
(1020 mb)
NE 8.1 mph
(NE 13 kph)
- 7SM
17:15
Overcast
28°F / -2°C 25°F / -4°C 86% 30.12 in
(1020 mb)
NE 5.8 mph
(NE 9 kph)
- 7SM
16:55
Overcast
28°F / -2°C 25°F / -4°C 86% 30.12 in
(1020 mb)
NE 6.9 mph
(NE 11 kph)
- 7SM
16:35
Overcast
28°F / -2°C 25°F / -4°C 86% 30.12 in
(1020 mb)
NE 8.1 mph
(NE 13 kph)
- 7SM
16:15
Overcast
28°F / -2°C 25°F / -4°C 86% 30.12 in
(1020 mb)
NE 6.9 mph
(NE 11 kph)
- 7SM
15:55
Overcast
28°F / -2°C 25°F / -4°C 86% 30.12 in
(1020 mb)
NE 9.2 mph
(NE 15 kph)
- 7SM
15:35
Overcast
28°F / -2°C 25°F / -4°C 86% 30.12 in
(1020 mb)
NE 9.2 mph
(NE 15 kph)
- 7SM
15:15
Overcast
28°F / -2°C 25°F / -4°C 86% 30.12 in
(1020 mb)
NE 5.8 mph
(NE 9 kph)
- 7SM
14:55
Overcast
28°F / -2°C 25°F / -4°C 86% 30.15 in
(1021 mb)
NE 5.8 mph
(NE 9 kph)
- 7SM
14:35
Overcast
30°F / -1°C 25°F / -4°C 80% 30.12 in
(1020 mb)
NE 4.6 mph
(NE 7 kph)
- 7SM
14:15
Overcast
30°F / -1°C 25°F / -4°C 80% 30.12 in
(1020 mb)
NE 6.9 mph
(NE 11 kph)
- 7SM
13:55
Overcast
28°F / -2°C 25°F / -4°C 86% 30.15 in
(1021 mb)
ENE 3.5 mph
(ENE 6 kph)
- 7SM
13:35
Overcast
28°F / -2°C 25°F / -4°C 86% 30.12 in
(1020 mb)
NE 3.5 mph
(NE 6 kph)
- 7SM
13:15
Overcast
28°F / -2°C 25°F / -4°C 86% 30.12 in
(1020 mb)
NE 8.1 mph
(NE 13 kph)
- 10SM
12:55
Overcast
30°F / -1°C 25°F / -4°C 80% 30.15 in
(1021 mb)
NE 5.8 mph
(NE 9 kph)
- 7SM
12:35
Overcast
30°F / -1°C 25°F / -4°C 80% 30.15 in
(1021 mb)
NE 4.6 mph
(NE 7 kph)
- 7SM
12:15
Overcast
30°F / -1°C 25°F / -4°C 80% 30.15 in
(1021 mb)
Calm - 7SM
11:55
Overcast
28°F / -2°C 25°F / -4°C 86% 30.15 in
(1021 mb)
NE 5.8 mph
(NE 9 kph)
- 7SM
11:35
Overcast
28°F / -2°C 23°F / -5°C 80% 30.15 in
(1021 mb)
NE 3.5 mph
(NE 6 kph)
- 7SM
11:15
Overcast
27°F / -3°C 23°F / -5°C 86% 30.18 in
(1022 mb)
Calm - 10SM
10:55
Overcast
27°F / -3°C 23°F / -5°C 86% 30.18 in
(1022 mb)
N 3.5 mph
(N 6 kph)
- 7SM
10:35
Overcast
27°F / -3°C 23°F / -5°C 86% 30.15 in
(1021 mb)
NNE 3.5 mph
(NNE 6 kph)
- 10SM
10:15
Overcast
27°F / -3°C 21°F / -6°C 80% 30.15 in
(1021 mb)
Calm - 10SM
09:55
Overcast
25°F / -4°C 21°F / -6°C 86% 30.15 in
(1021 mb)
Calm - 10SM
09:35
Overcast
25°F / -4°C 21°F / -6°C 86% 30.15 in
(1021 mb)
N 3.5 mph
(N 6 kph)
- 10SM
09:15
Overcast
23°F / -5°C 19°F / -7°C 86% 30.15 in
(1021 mb)
Calm - 10SM
08:55
Overcast
23°F / -5°C 19°F / -7°C 86% 30.15 in
(1021 mb)
Calm - 10SM
08:35
Overcast
21°F / -6°C 19°F / -7°C 93% 30.15 in
(1021 mb)
Calm - 10SM
08:15
Overcast
21°F / -6°C 18°F / -8°C 86% 30.15 in
(1021 mb)
Calm - 10SM
07:54
Overcast
21°F / -6°C 19°F / -7°C 93% 30.15 in
(1021 mb)
Calm - 7SM
07:35
Overcast
21°F / -6°C 18°F / -8°C 86% 30.15 in
(1021 mb)
Calm - 10SM
07:15
Overcast
21°F / -6°C 18°F / -8°C 86% 30.15 in
(1021 mb)
Calm - 10SM
06:55
Partly Cloudy
19°F / -7°C 16°F / -9°C 86% 30.15 in
(1021 mb)
Calm - 10SM
06:35
Clear
19°F / -7°C 16°F / -9°C 86% 30.12 in
(1020 mb)
SW 3.5 mph
(SW 6 kph)
- 10SM
06:15
Clear
21°F / -6°C 18°F / -8°C 86% 30.12 in
(1020 mb)
SSW 4.6 mph
(SSW 7 kph)
- 10SM
05:55
Clear
21°F / -6°C 18°F / -8°C 86% 30.12 in
(1020 mb)
SSW 4.6 mph
(SSW 7 kph)
- 10SM
05:35
Clear
21°F / -6°C 18°F / -8°C 86% 30.12 in
(1020 mb)
SW 3.5 mph
(SW 6 kph)
- 10SM
05:15
Clear
21°F / -6°C 18°F / -8°C 86% 30.12 in
(1020 mb)
SW 3.5 mph
(SW 6 kph)
- 10SM
04:55
Clear
21°F / -6°C 18°F / -8°C 86% 30.12 in
(1020 mb)
SW 6.9 mph
(SW 11 kph)
- 10SM
04:35
Clear
21°F / -6°C 18°F / -8°C 86% 30.12 in
(1020 mb)
SW 10.4 mph
(SW 17 kph)
- 10SM
04:15
Clear
21°F / -6°C 18°F / -8°C 86% 30.12 in
(1020 mb)
SW 9.2 mph
(SW 15 kph)
- 10SM
03:54
Clear
21°F / -6°C 18°F / -8°C 86% 30.12 in
(1020 mb)
SSW 6.9 mph
(SSW 11 kph)
- 10SM
03:35
Clear
23°F / -5°C 18°F / -8°C 80% 30.12 in
(1020 mb)
SW 10.4 mph
(SW 17 kph)
- 10SM
03:15
Clear
23°F / -5°C 16°F / -9°C 74% 30.12 in
(1020 mb)
SW 10.4 mph
(SW 17 kph)
- 10SM
02:55
Clear
21°F / -6°C 16°F / -9°C 80% 30.12 in
(1020 mb)
SW 12.7 mph
(SW 20 kph)
- 10SM
02:35
Clear
23°F / -5°C 16°F / -9°C 74% 30.12 in
(1020 mb)
SW 13.8 mph
(SW 22 kph)
- 10SM
02:15
Clear
21°F / -6°C 16°F / -9°C 80% 30.15 in
(1021 mb)
SW 13.8 mph
(SW 22 kph)
- 10SM
01:55
Clear
23°F / -5°C 16°F / -9°C 74% 30.15 in
(1021 mb)
SW 15 mph
(SW 24 kph)
- 10SM
01:35
Clear
23°F / -5°C 16°F / -9°C 74% 30.15 in
(1021 mb)
SW 16.1 mph
(SW 26 kph)
- 10SM
01:15
Clear
23°F / -5°C 16°F / -9°C 74% 30.15 in
(1021 mb)
SW 18.4 mph
(SW 30 kph)
- 10SM
00:55
Clear
23°F / -5°C 14°F / -10°C 68% 30.15 in
(1021 mb)
SW 15 mph
(SW 24 kph)
- 10SM
00:35
Clear
21°F / -6°C 14°F / -10°C 74% 30.15 in
(1021 mb)
SW 13.8 mph
(SW 22 kph)
- 10SM
00:15
Clear
21°F / -6°C 14°F / -10°C 74% 30.18 in
(1022 mb)
SW 13.8 mph
(SW 22 kph)
- 10SM
Time Weather Temperature Dewpoint Humidity Pressure Winds Precip Visibility


Weather for websites

WeatherForYou.com, LLC is not responsible for any damages or problems caused by this service. Current weather conditions are obtained from the closest station including government and personal stations which may have varying degrees of accuracy. Weather forecasts are derived from the NOAA NDFD. Like all things, this site belongs to Jesus Christ... He just trusts me to maintain it. If you have any questions or comments email webmaster@weatherforyou.com

Copyright © 2015, WeatherForYou.com LLC. All rights reserved.